Date,TemperatureHighF,TemperatureAvgF,TemperatureLowF,DewpointHighF,DewpointAvgF,DewpointLowF,HumidityHigh,HumidityAvg,HumidityLow,PressureMaxIn,PressureMinIn,WindSpeedMaxMPH,WindSpeedAvgMPH,GustSpeedMaxMPH,PrecipitationSumIn
2014-1-1,22.2,15.8,11.4,12.7,8.8,4.2,89,74,55,30.44,30.27,5,1,11,0.00
2014-1-2,13.5,9.4,4.2,10.6,6.3,0.7,89,87,84,30.32,30.03,8,4,15,0.00
2014-1-3,10.0,4.8,0.8,2.4,-0.7,-3.4,87,78,63,30.45,30.13,4,2,8,0.00
2014-1-4,37.7,25.6,10.1,23.0,10.9,1.9,72,54,37,30.32,30.01,8,4,20,0.00
2014-1-5,38.5,34.5,32.2,31.7,25.0,18.2,95,70,45,30.12,29.39,3,0,6,0.28
2014-1-6,45.6,22.3,1.5,43.1,17.1,-99.9,97,82,68,29.91,29.22,10,-3,23,0.28
2014-1-7,8.0,2.9,-1.7,5.2,-1.8,-12.5,88,81,60,30.33,29.91,8,6,24,0.00
2014-1-8,19.2,13.3,5.5,16.5,9.7,2.5,90,85,77,30.50,30.33,4,1,11,0.00
2014-1-9,25.2,15.0,2.7,19.1,10.0,-0.0,93,81,60,30.68,30.40,2,0,8,0.00
2014-1-10,41.1,33.0,22.8,38.4,30.4,19.2,96,90,80,30.40,29.85,2,0,4,0.22
2014-1-11,51.7,43.6,34.5,48.7,41.3,31.9,96,92,85,29.85,29.20,6,3,17,0.41
2014-1-12,34.5,33.0,30.7,31.9,29.9,27.8,93,88,80,29.98,29.52,6,3,13,0.00
2014-1-13,51.0,43.5,34.1,42.8,34.4,28.4,92,71,50,29.90,29.63,7,4,15,0.23
2014-1-14,44.8,35.6,27.3,42.6,32.7,24.8,97,89,68,29.83,29.63,3,1,9,0.06
2014-1-15,35.7,30.0,26.2,32.2,25.6,21.6,88,84,79,30.01,29.75,4,1,11,0.00
2014-1-16,32.7,28.0,24.2,23.7,20.1,16.3,90,73,53,29.97,29.82,5,1,10,0.00
2014-1-17,37.2,31.2,25.1,28.0,24.7,20.7,91,77,60,29.84,29.76,7,2,16,0.00
2014-1-18,29.7,20.9,18.3,27.4,17.3,12.0,92,86,77,29.94,29.83,6,3,18,0.00
2014-1-19,29.1,22.7,16.4,24.5,18.4,10.4,91,83,74,29.87,29.51,9,4,24,0.00
2014-1-20,30.9,21.9,11.5,27.7,16.8,2.3,90,80,65,30.06,29.52,6,2,15,0.00
2014-1-21,11.3,6.2,2.3,5.7,1.4,-2.6,89,80,68,30.19,30.05,5,2,11,0.00
2014-1-22,12.0,6.0,3.1,2.4,-0.0,-3.3,87,76,56,30.17,30.06,3,0,7,0.00
2014-1-23,13.9,8.3,1.4,8.0,3.8,-3.6,89,82,71,30.43,30.08,4,1,9,0.00
2014-1-24,17.4,10.2,0.4,9.3,2.7,-5.4,85,72,57,30.43,29.70,9,4,19,0.00
2014-1-25,24.1,17.8,7.8,22.1,13.5,0.5,92,83,67,29.70,29.25,8,4,18,0.00
2014-1-26,28.1,12.7,3.9,22.4,6.6,-3.0,89,76,66,29.80,29.45,6,3,14,0.00
2014-1-27,29.5,15.2,2.5,26.4,7.6,-5.1,94,72,56,30.20,29.33,8,4,19,0.00
2014-1-28,8.7,3.2,-0.9,1.1,-3.5,-8.4,81,73,66,30.40,30.20,7,4,16,0.00
2014-1-29,14.1,7.8,1.1,9.5,2.3,-5.4,89,78,67,30.29,30.10,8,5,25,0.00
2014-1-30,32.0,21.7,11.2,15.9,5.9,2.8,74,52,31,30.30,29.85,8,3,16,0.00
2014-1-31,33.7,31.1,28.4,27.6,23.3,16.4,90,73,58,30.19,29.92,7,2,20,0.00
2014-2-1,38.5,32.5,23.9,37.5,30.1,22.4,96,91,73,30.20,29.84,4,0,9,0.67
2014-2-2,36.9,29.9,23.4,35.3,27.0,18.1,96,89,80,30.25,29.86,3,0,7,0.07
2014-2-3,25.2,21.3,13.5,19.6,16.2,11.1,93,81,65,30.42,30.23,4,1,6,0.00
2014-2-4,26.5,19.3,9.9,17.5,13.5,8.0,94,79,62,30.52,30.26,3,0,7,0.00
2014-2-5,23.6,20.9,13.0,22.1,18.6,8.9,94,91,80,30.29,29.78,7,3,15,0.00
2014-2-6,19.2,13.7,4.4,15.4,10.1,2.1,92,85,77,30.39,30.23,6,2,16,0.00
2014-2-7,14.2,9.6,7.1,8.8,4.7,2.0,88,81,72,30.35,30.25,7,4,18,0.00
2014-2-8,16.6,11.1,5.1,10.3,6.1,0.9,87,80,71,30.37,30.25,5,2,13,0.00
2014-2-9,20.7,14.8,8.5,16.7,11.6,6.2,92,87,79,30.25,29.99,2,0,6,0.00
2014-2-10,22.9,13.0,4.9,14.0,8.4,2.3,91,82,66,30.37,30.15,4,1,8,0.00
2014-2-11,19.3,11.8,1.7,7.7,4.6,-1.0,91,73,56,30.56,30.36,3,0,7,0.00
2014-2-12,27.5,11.6,-4.0,9.3,3.0,-7.0,91,70,44,30.56,30.19,2,0,4,0.00
2014-2-13,23.7,18.2,10.4,20.0,12.2,3.4,86,77,59,30.20,29.57,1,0,3,0.00
2014-2-14,27.6,24.7,20.9,24.4,21.1,18.3,91,86,76,29.75,29.47,5,1,11,0.00
2014-2-15,29.9,23.1,10.4,22.4,18.3,6.0,93,82,62,30.06,29.75,4,2,10,0.02
2014-2-16,22.5,13.7,6.9,14.9,8.8,3.3,89,81,69,30.35,30.04,3,1,7,0.00
2014-2-17,31.3,15.1,-1.4,11.4,4.3,-5.2,87,64,37,30.51,29.82,7,1,10,0.00
2014-2-18,31.2,26.4,23.5,27.6,21.5,10.2,93,82,41,30.04,29.74,7,4,17,0.00
2014-2-19,47.7,37.9,25.0,33.4,28.9,21.5,94,72,49,30.09,29.61,5,2,14,0.15
2014-2-20,41.4,34.7,30.1,35.1,30.7,27.8,96,86,61,30.15,29.68,4,1,8,0.95
2014-2-21,48.7,38.2,33.6,47.0,33.6,22.6,98,84,61,29.78,29.48,8,4,22,0.53
2014-2-22,40.5,36.7,34.5,29.3,24.3,18.7,77,61,49,29.95,29.76,9,6,25,0.00
2014-2-23,36.7,31.8,25.0,27.8,23.0,14.7,86,71,52,30.01,29.94,6,3,17,0.00
2014-2-24,24.8,20.8,18.2,17.0,13.3,9.2,89,73,55,30.13,29.96,6,3,19,0.00
2014-2-25,20.7,17.8,14.6,16.3,10.1,5.1,89,72,58,30.12,29.88,5,2,13,0.00
2014-2-26,19.2,13.0,9.7,16.7,6.8,1.6,91,76,67,29.93,29.73,4,3,13,0.00
2014-2-27,14.8,8.1,2.8,7.4,-0.6,-4.8,73,67,63,30.20,29.60,6,3,17,0.00
2014-2-28,18.0,7.6,-1.5,-0.3,-3.8,-6.5,84,61,36,30.46,30.20,3,1,8,0.00
2014-3-1,36.6,24.0,8.0,23.3,11.6,-1.6,88,60,38,30.25,30.07,5,1,12,0.04
2014-3-2,19.8,13.8,5.0,13.9,5.3,-5.0,90,70,49,30.29,30.22,4,1,8,0.00
2014-3-3,16.0,6.4,-0.1,3.3,-1.2,-5.3,85,71,52,30.48,30.29,4,1,9,0.00
2014-3-4,17.9,9.4,-0.7,11.3,2.2,-5.7,83,73,51,30.46,30.28,3,1,7,0.00
2014-3-5,23.1,16.4,8.1,14.4,10.9,5.0,90,79,60,30.61,30.29,5,1,10,0.00
2014-3-6,28.8,16.2,1.2,10.6,5.1,-2.0,91,64,41,30.65,30.28,4,1,10,0.00
2014-3-7,46.9,29.1,10.7,26.0,18.0,5.6,88,65,43,30.28,29.90,4,1,9,0.09
2014-3-8,36.5,31.1,25.4,29.9,25.7,18.5,89,80,69,30.08,29.87,5,1,8,0.00
2014-3-9,30.5,23.3,12.9,22.7,16.7,9.3,86,76,60,30.22,29.82,5,2,16,0.00
2014-3-10,44.3,38.0,29.4,36.8,31.5,22.4,89,77,67,29.84,29.52,6,3,14,0.01
2014-3-11,53.7,41.6,34.7,39.2,35.7,32.6,92,81,54,29.73,29.58,3,1,11,0.00
2014-3-12,38.6,22.1,12.1,35.9,20.2,10.0,95,92,90,29.81,29.40,9,4,22,0.15
2014-3-13,17.3,12.4,4.7,13.0,8.0,2.2,91,83,65,30.13,29.80,5,3,14,0.00
2014-3-14,54.9,38.3,16.6,40.0,25.2,9.5,85,61,38,30.09,29.58,8,4,20,0.16
2014-3-15,41.9,35.7,21.1,36.8,30.6,13.4,88,82,61,30.20,29.61,5,3,15,0.00
2014-3-16,20.9,17.0,11.6,14.2,7.0,1.0,84,65,50,30.42,30.20,7,-11,13,0.00
2014-3-17,30.1,19.0,5.8,14.8,8.7,1.5,86,65,47,30.27,30.05,5,2,13,0.00
2014-3-18,51.2,32.1,15.8,29.7,20.2,10.8,84,63,41,30.15,30.07,6,-6,13,0.00
2014-3-19,50.8,41.1,28.3,41.3,32.3,19.9,92,71,52,30.07,29.64,6,2,18,0.31
2014-3-20,40.8,34.3,30.8,38.7,30.9,25.1,93,87,73,29.97,29.66,6,4,13,0.00
2014-3-21,38.5,31.8,24.9,26.0,21.9,17.1,80,67,53,30.12,29.88,5,1,13,0.01
2014-3-22,48.2,35.8,30.8,34.8,28.1,22.0,89,74,53,30.12,29.54,10,3,13,0.06
2014-3-23,30.6,21.7,17.4,24.5,12.8,6.7,87,69,51,30.33,30.12,9,2,13,0.00
2014-3-24,26.5,20.4,15.4,17.0,11.9,6.9,85,70,55,30.34,30.13,6,2,13,0.00
2014-3-25,36.9,26.7,19.7,21.8,15.1,9.2,87,63,33,30.13,29.90,7,-4,14,0.00
2014-3-26,26.2,19.7,13.8,14.3,8.4,5.2,86,62,45,30.34,30.03,8,2,13,0.00
2014-3-27,46.4,31.4,15.5,33.9,15.3,5.9,80,55,27,30.35,29.88,6,2,13,0.01
2014-3-28,52.4,44.5,37.6,46.4,37.3,28.9,89,77,57,30.20,29.69,7,-4,14,0.14
2014-3-29,38.8,35.1,30.8,33.2,30.8,29.0,96,85,77,30.22,29.98,9,3,17,0.00
2014-3-30,44.6,34.3,28.7,31.4,28.4,24.8,96,80,54,30.10,29.97,8,-3,13,0.31
2014-3-31,50.6,37.4,24.4,33.9,28.3,21.0,93,71,51,30.25,30.09,3,0,13,0.00
2014-4-1,69.6,46.9,33.9,40.5,31.5,26.7,81,58,30,30.17,29.74,6,2,13,0.00
2014-4-2,47.4,38.5,29.5,33.1,29.5,26.6,90,71,50,30.24,29.97,5,2,14,0.00
2014-4-3,42.5,34.2,23.3,30.7,26.2,21.5,94,74,55,30.25,30.02,5,2,13,0.00
2014-4-4,53.0,43.5,33.8,49.6,39.2,25.5,94,85,68,29.98,29.43,14,3,19,0.62
2014-4-5,39.5,35.0,29.6,34.5,28.1,-99.9,90,77,59,30.19,29.66,9,-2,18,0.01
2014-4-6,52.4,39.6,27.6,30.8,26.8,21.9,93,64,32,30.24,30.10,4,1,11,0.00
2014-4-7,55.2,41.6,29.3,42.6,32.1,23.8,95,72,38,30.10,29.44,5,1,11,0.79
2014-4-8,45.2,38.7,34.3,40.3,36.5,32.2,97,92,78,29.74,29.25,5,1,12,0.51
2014-4-9,41.1,35.4,32.9,33.1,31.7,30.2,92,87,70,30.02,29.74,2,1,10,0.00
2014-4-10,70.1,52.3,32.7,50.2,34.5,26.9,94,55,26,30.01,29.67,9,4,22,0.30
2014-4-11,62.7,48.4,36.9,48.8,40.4,35.1,97,77,37,30.06,29.85,4,1,10,0.01
2014-4-12,68.3,52.9,38.4,44.5,39.3,30.5,93,65,25,30.17,29.94,4,1,12,0.00
2014-4-13,77.6,61.2,45.7,57.6,49.6,39.9,86,68,46,30.01,29.76,6,2,19,0.09
2014-4-14,75.8,61.3,42.7,57.7,51.3,40.3,96,73,46,29.76,29.56,8,3,21,0.41
2014-4-15,42.8,32.8,24.2,40.5,28.4,12.8,95,84,59,30.21,29.58,5,2,16,0.32
2014-4-16,39.5,30.6,22.2,22.2,17.2,12.2,70,58,45,30.56,30.21,3,1,13,0.01
2014-4-17,62.9,44.9,26.8,29.3,24.1,19.6,79,48,26,30.58,30.35,5,1,11,0.00
2014-4-18,63.1,51.4,39.9,43.2,34.2,26.9,88,54,36,30.37,30.20,6,2,16,0.00
2014-4-19,52.8,43.3,31.4,36.3,31.0,27.5,88,64,39,30.45,30.29,5,2,15,0.00
2014-4-20,71.8,51.9,32.1,38.3,29.6,22.5,79,48,17,30.42,30.14,4,1,9,0.00
2014-4-21,74.4,60.4,45.8,40.8,35.6,31.7,66,41,25,30.14,29.69,4,1,13,0.00
2014-4-22,65.0,49.2,40.9,52.2,42.1,36.3,96,79,38,29.72,29.55,5,2,16,0.47
2014-4-23,50.1,40.9,36.0,37.8,31.9,18.5,93,73,42,30.08,29.71,6,2,17,0.03
2014-4-24,54.7,42.5,26.8,26.1,21.8,15.1,82,48,23,30.19,30.02,4,1,11,0.00
2014-4-25,62.4,50.7,39.5,47.6,31.0,20.9,94,51,28,30.02,29.59,5,1,15,0.32
2014-4-26,49.1,42.5,35.9,44.2,38.4,31.7,96,86,72,30.05,29.73,4,1,11,0.13
2014-4-27,54.8,45.3,38.3,37.1,32.8,29.7,82,63,39,30.20,30.05,4,1,13,0.00
2014-4-28,58.2,47.7,33.1,36.2,32.8,29.0,87,59,40,30.19,29.95,6,2,16,0.00
2014-4-29,58.7,51.7,48.3,48.0,42.7,34.0,89,72,55,30.03,29.85,8,4,23,1.03
2014-4-30,56.2,51.5,47.5,51.5,47.2,41.5,96,85,71,30.06,29.71,4,1,9,0.53
2014-5-1,57.2,49.6,41.9,51.0,43.2,37.8,96,80,51,29.79,29.71,6,2,20,0.04
2014-5-2,52.9,46.3,42.4,44.5,41.0,38.4,89,82,72,29.84,29.70,7,3,21,0.00
2014-5-3,60.7,49.4,44.3,48.5,43.9,40.6,92,82,56,29.82,29.63,5,2,16,0.25
2014-5-4,56.6,47.0,37.7,42.0,37.4,33.1,92,71,44,30.01,29.73,5,2,16,0.00
2014-5-5,58.5,48.0,35.5,40.5,36.3,32.4,92,66,40,30.07,29.95,3,0,10,0.00
2014-5-6,61.1,51.7,42.4,37.5,35.3,30.2,81,55,33,30.14,29.95,5,1,14,0.00
2014-5-7,69.8,54.7,42.5,42.5,36.7,31.2,73,52,33,30.22,30.05,4,1,11,0.00
2014-5-8,80.7,63.1,48.7,59.3,51.8,37.1,95,69,47,30.09,29.96,4,1,11,0.26
2014-5-9,86.0,69.1,56.6,61.7,57.4,52.7,92,70,33,29.98,29.75,7,2,19,0.04
2014-5-10,64.5,57.0,47.9,60.1,48.0,40.6,87,73,51,29.95,29.75,6,3,16,0.00
2014-5-11,72.8,58.1,41.2,46.0,39.9,32.8,93,56,26,30.11,29.94,4,1,14,0.00
2014-5-12,78.4,64.9,49.8,63.7,55.2,41.8,91,72,53,30.06,30.00,4,1,12,0.00
2014-5-13,88.4,71.6,61.0,68.7,63.7,57.2,97,79,50,30.07,29.92,5,1,14,0.73
2014-5-14,79.8,67.6,60.0,68.2,63.2,58.6,96,87,66,30.08,29.96,5,1,14,0.84
2014-5-15,78.3,65.5,49.5,64.2,58.7,48.2,97,80,53,29.98,29.77,7,2,21,0.41
2014-5-16,50.5,47.0,43.2,48.6,43.0,36.4,97,86,66,30.00,29.85,5,1,14,0.36
2014-5-17,58.7,47.7,38.2,43.8,38.8,35.4,95,73,46,30.19,29.98,4,1,14,0.00
2014-5-18,60.9,50.5,39.6,45.2,39.8,30.0,96,70,33,30.28,30.19,5,1,15,0.02
2014-5-19,65.9,53.4,44.5,47.7,43.0,39.3,86,69,49,30.28,30.17,5,2,13,0.00
2014-5-20,73.5,58.3,46.4,55.6,46.1,39.0,92,67,33,30.19,29.96,2,0,10,0.24
2014-5-21,74.0,61.9,51.9,63.6,57.2,50.0,96,85,67,29.95,29.79,4,1,15,0.12
2014-5-22,69.5,59.7,53.3,59.1,54.9,48.2,98,85,63,29.95,29.76,5,1,13,0.03
2014-5-23,55.9,51.2,47.1,50.6,47.6,44.6,95,88,77,30.08,29.92,5,2,13,0.02
2014-5-24,68.8,56.5,46.2,51.9,48.8,45.4,97,78,52,30.16,30.08,5,1,13,0.01
2014-5-25,76.0,61.6,47.5,52.0,47.7,43.4,95,65,33,30.16,30.06,5,2,15,0.00
2014-5-26,74.3,65.9,56.3,56.3,51.8,46.0,78,61,49,30.06,29.90,5,2,15,0.00
2014-5-27,78.6,67.1,59.3,65.9,58.6,53.3,94,75,62,29.91,29.79,5,2,15,0.06
2014-5-28,68.0,60.1,56.1,57.4,54.1,49.5,97,81,66,30.13,29.83,4,1,14,0.00
2014-5-29,69.3,59.8,52.7,58.0,53.3,49.8,94,79,66,30.13,30.07,3,1,11,0.00
2014-5-30,76.3,62.5,47.1,56.3,52.4,46.3,98,73,43,30.17,30.11,3,1,12,0.00
2014-5-31,75.5,62.9,48.2,52.5,44.0,36.1,97,57,26,30.27,30.16,5,1,12,0.00
2014-6-1,85.5,67.8,44.1,53.2,46.0,40.1,89,50,25,30.26,30.05,4,1,10,0.00
2014-6-2,83.1,75.2,67.1,69.5,62.8,51.1,80,66,51,30.06,29.88,6,3,19,0.00
2014-6-3,79.8,71.3,58.7,69.2,63.5,50.1,96,78,53,29.88,29.72,7,3,18,1.14
2014-6-4,73.3,62.3,52.2,57.4,53.1,48.6,92,73,47,29.90,29.76,4,1,12,0.00
2014-6-5,66.3,56.3,47.6,54.6,49.2,45.6,98,79,54,29.92,29.74,4,1,12,0.00
2014-6-6,72.5,60.1,44.6,55.8,50.3,43.5,97,72,49,30.01,29.92,4,1,11,0.00
2014-6-7,83.6,67.2,48.0,54.3,49.8,44.1,95,59,27,30.08,29.93,2,0,9,0.00
2014-6-8,80.8,64.7,53.4,65.2,56.5,49.6,96,77,48,29.93,29.76,2,0,9,0.69
2014-6-9,76.8,67.3,55.1,63.5,59.8,54.0,97,78,60,29.96,29.89,3,1,13,0.01
2014-6-10,78.3,69.7,59.5,66.3,61.8,58.1,96,77,60,29.94,29.89,5,1,12,0.00
2014-6-11,85.1,73.8,65.2,69.9,65.7,60.2,95,77,53,29.92,29.77,4,1,12,0.07
2014-6-12,80.6,71.8,66.7,71.1,66.1,62.9,96,83,65,29.81,29.72,5,2,15,0.52
2014-6-13,75.9,67.7,58.4,66.7,62.4,48.7,97,84,66,29.90,29.71,5,1,12,0.05
2014-6-14,66.6,57.9,51.8,53.7,49.5,44.9,94,74,60,30.13,29.90,4,1,12,0.00
2014-6-15,80.1,63.5,46.5,59.7,53.6,45.5,98,74,42,30.22,30.06,3,0,9,0.00
2014-6-16,83.5,69.8,52.2,69.5,61.0,51.1,97,75,58,30.08,29.95,5,1,15,0.00
2014-6-17,89.3,75.7,63.9,72.5,67.0,61.3,92,76,51,30.03,29.73,6,2,21,0.03
2014-6-18,78.2,70.3,64.3,66.2,63.2,60.6,92,79,61,30.02,29.83,3,1,11,0.03
2014-6-19,77.2,69.9,54.1,65.2,52.0,36.2,96,58,24,30.12,29.98,4,1,12,0.00
2014-6-20,77.7,63.2,48.5,52.1,47.3,40.5,95,60,36,30.12,29.97,3,1,10,0.00
2014-6-21,77.4,65.8,55.3,54.1,47.1,41.8,75,52,33,29.99,29.91,4,1,11,0.00
2014-6-22,82.7,68.7,50.7,55.2,50.7,46.9,92,57,32,29.98,29.93,3,1,11,0.00
2014-6-23,88.2,74.2,57.2,66.6,59.3,49.6,81,61,44,29.99,29.89,3,1,10,0.00
2014-6-24,87.3,77.2,70.0,70.7,68.0,65.6,94,74,56,29.91,29.80,5,2,20,0.17
2014-6-25,76.7,71.5,68.0,70.3,67.9,65.0,97,89,77,29.91,29.83,3,1,11,0.47
2014-6-26,82.3,72.7,65.2,66.8,62.7,53.9,96,74,39,30.03,29.90,3,1,9,0.01
2014-6-27,88.7,74.7,61.4,66.9,62.4,57.3,98,69,41,30.13,30.03,2,0,9,0.00
2014-6-28,92.5,78.8,64.6,70.9,65.4,58.0,87,65,39,30.17,30.08,3,1,9,0.00
2014-6-29,88.0,78.8,70.8,73.6,68.7,63.4,93,72,57,30.10,29.94,4,2,16,0.39
2014-6-30,89.0,79.3,69.5,73.8,70.2,67.0,92,75,57,29.97,29.78,5,2,14,0.00
2014-7-1,86.0,79.6,70.8,73.6,69.6,66.0,86,72,54,29.79,29.58,8,4,22,0.11
2014-7-2,84.2,76.4,69.7,70.9,67.3,60.2,92,75,47,29.88,29.72,5,2,18,0.00
2014-7-3,75.4,69.2,59.7,68.6,63.4,53.9,94,82,68,30.04,29.88,3,1,12,0.09
2014-7-4,74.4,64.6,54.6,54.9,50.6,45.3,92,63,37,30.21,30.04,4,1,12,0.00
2014-7-5,77.3,66.6,51.1,56.1,51.3,47.1,91,61,35,30.25,30.08,6,2,15,0.00
2014-7-6,81.6,72.3,58.6,63.2,58.0,53.0,87,63,38,30.08,29.78,6,2,18,0.00
2014-7-7,79.8,72.7,67.3,70.6,66.8,59.7,96,82,68,29.79,29.62,7,3,21,1.06
2014-7-8,79.7,71.9,65.0,71.9,67.4,58.8,95,86,74,29.70,29.47,6,2,18,0.79
2014-7-9,73.3,66.7,55.9,63.3,59.1,52.8,91,77,61,30.01,29.70,3,1,12,0.04
2014-7-10,76.3,64.4,49.8,56.3,52.5,48.6,98,69,45,30.18,30.01,3,0,9,0.01
2014-7-11,83.6,69.0,52.8,61.8,56.4,51.3,97,67,41,30.23,30.14,2,0,8,0.00
2014-7-12,85.0,73.8,60.6,64.2,59.9,56.9,91,65,43,30.17,29.95,4,1,14,0.00
2014-7-13,81.2,75.4,71.2,73.5,68.1,62.4,94,79,61,29.95,29.74,6,2,16,0.38
2014-7-14,80.9,72.6,62.4,69.2,64.4,55.3,95,76,64,29.87,29.75,2,0,6,0.00
2014-7-15,77.8,70.3,63.7,68.3,61.8,52.0,96,77,46,29.77,29.65,7,2,22,0.07
2014-7-16,72.2,64.7,56.2,57.9,55.1,52.8,89,72,53,29.93,29.77,5,1,15,0.00
2014-7-17,74.4,65.5,56.1,58.1,53.8,50.0,89,68,46,30.12,29.93,5,1,14,0.00
2014-7-18,80.7,68.6,54.2,59.3,54.4,49.6,94,63,35,30.23,30.12,3,0,8,0.00
2014-7-19,70.3,65.7,60.6,65.9,60.6,55.4,95,84,69,30.19,30.08,2,0,10,0.54
2014-7-20,81.8,71.2,63.7,66.7,64.1,62.3,97,80,55,30.09,30.03,3,1,9,0.04
2014-7-21,86.2,74.1,61.8,69.3,63.3,56.6,97,72,40,30.13,30.05,3,1,8,0.00
2014-7-22,88.4,75.4,59.5,67.8,63.7,58.4,97,70,47,30.11,29.91,4,1,13,0.00
2014-7-23,77.5,72.5,65.4,71.8,65.1,57.4,93,78,63,29.97,29.82,4,2,15,0.09
2014-7-24,73.9,65.5,58.3,57.7,51.7,44.3,83,63,37,30.05,29.96,4,1,12,0.00
2014-7-25,76.3,66.2,53.4,62.7,55.4,50.3,90,70,45,30.06,29.95,5,1,14,0.00
2014-7-26,79.7,71.7,63.8,64.5,60.3,55.1,87,68,44,29.95,29.74,5,1,13,0.00
2014-7-27,83.9,75.5,65.4,68.7,65.9,61.1,92,73,48,29.74,29.55,5,2,16,0.04
2014-7-28,67.5,62.6,54.1,63.2,58.5,50.4,96,87,65,29.86,29.53,5,2,15,0.31
2014-7-29,72.2,61.7,50.4,58.1,53.3,48.9,96,76,52,29.96,29.85,4,1,14,0.00
2014-7-30,73.5,64.8,57.5,62.2,58.6,54.1,94,81,64,29.97,29.92,5,1,19,0.09
2014-7-31,76.0,67.1,57.9,63.2,57.8,49.2,96,74,41,30.06,29.94,5,1,17,0.23
2014-8-1,83.0,72.1,60.3,66.3,61.2,54.1,95,71,45,30.11,30.04,4,1,12,0.03
2014-8-2,83.2,71.5,65.1,67.2,63.8,60.8,94,78,57,30.11,30.02,4,0,9,0.24
2014-8-3,76.0,68.2,62.8,67.2,64.5,61.1,97,89,67,30.09,30.03,1,0,8,0.03
2014-8-4,82.5,70.6,60.1,68.5,63.1,57.4,98,80,44,30.08,30.01,4,1,12,0.00
2014-8-5,73.8,68.0,59.9,66.9,63.2,57.9,96,85,63,30.04,29.98,2,0,7,0.09
2014-8-6,77.4,67.5,58.6,64.4,57.5,49.8,98,74,40,29.99,29.94,3,1,11,0.00
2014-8-7,76.9,66.4,56.8,63.2,55.6,50.3,95,71,41,30.08,29.99,3,1,11,0.00
2014-8-8,78.8,65.8,52.9,62.1,55.3,51.8,97,72,44,30.16,30.08,3,0,9,0.00
2014-8-9,83.5,68.1,52.4,61.8,55.8,51.3,98,69,38,30.15,30.09,4,1,12,0.00
2014-8-10,87.5,71.6,54.9,65.5,59.0,53.4,96,68,37,30.13,30.03,4,0,11,0.00
2014-8-11,85.5,73.9,61.6,66.1,60.7,57.0,91,66,46,30.05,29.81,6,1,17,0.00
2014-8-12,81.7,70.4,64.0,68.9,64.6,59.4,96,83,62,29.81,29.66,8,2,27,1.55
2014-8-13,72.5,65.5,55.7,65.8,58.8,49.8,95,80,62,29.89,29.68,5,2,16,0.04
2014-8-14,67.8,60.0,53.9,54.0,49.6,44.5,90,70,49,29.91,29.85,4,1,14,0.00
2014-8-15,73.3,62.2,54.9,56.4,50.9,46.5,80,67,43,29.94,29.90,5,2,17,0.00
2014-8-16,70.2,64.2,54.3,61.4,55.9,48.3,90,75,58,29.93,29.82,6,2,21,0.17
2014-8-17,75.8,67.8,60.1,61.9,59.3,56.1,91,75,53,29.97,29.82,3,1,9,0.00
2014-8-18,76.0,65.2,54.5,60.0,56.8,53.2,97,76,51,29.97,29.85,3,1,9,0.00
2014-8-19,83.0,68.3,53.1,64.5,58.1,50.6,96,72,41,29.87,29.80,2,0,9,0.00
2014-8-20,80.4,73.2,67.3,67.6,64.5,55.6,88,75,64,29.90,29.80,4,1,9,0.00
2014-8-21,81.5,74.3,69.2,69.5,67.0,64.1,92,79,58,29.94,29.88,5,1,16,0.00
2014-8-22,81.4,71.8,64.1,69.1,66.3,62.9,97,84,62,29.98,29.92,3,1,10,0.00
2014-8-23,78.9,69.8,65.0,68.9,65.6,62.6,97,87,69,30.09,29.97,4,1,13,0.00
2014-8-24,83.5,69.9,58.4,65.8,62.1,57.6,98,79,50,30.16,30.09,2,0,8,0.00
2014-8-25,86.4,72.0,57.7,62.5,60.3,56.1,96,70,44,30.18,30.07,3,1,11,0.00
2014-8-26,86.5,76.1,68.2,70.4,64.8,60.3,84,69,54,30.10,29.96,6,2,17,0.00
2014-8-27,79.6,72.6,63.9,70.8,62.3,54.9,89,71,46,30.04,29.97,4,1,11,0.00
2014-8-28,73.0,62.8,52.2,56.8,50.5,45.3,94,67,40,30.14,30.01,4,1,13,0.00
2014-8-29,66.9,57.2,50.5,59.3,52.6,47.6,92,85,72,30.15,30.08,0,0,2,0.00
2014-8-30,89.0,75.9,62.2,73.4,63.8,55.1,86,67,49,30.10,29.89,5,2,14,0.09
2014-8-31,78.8,73.9,70.6,70.6,69.3,68.0,94,86,73,29.94,29.89,6,2,16,0.17
2014-9-1,84.9,76.0,68.3,72.7,69.8,66.8,96,82,64,29.96,29.79,5,1,14,0.05
2014-9-2,77.1,71.8,65.6,71.9,68.5,63.9,96,90,77,29.90,29.77,5,2,17,0.12
2014-9-3,80.8,70.2,57.2,66.5,61.3,56.6,98,76,45,30.07,29.90,5,1,12,0.01
2014-9-4,86.3,73.5,60.1,66.9,61.9,58.7,97,70,42,30.08,29.99,4,1,15,0.00
2014-9-5,89.2,78.9,68.4,72.7,67.8,63.3,95,70,54,30.06,29.85,5,2,17,1.18
2014-9-6,69.9,66.0,52.6,68.0,61.0,49.9,96,84,66,30.07,29.79,4,1,13,0.07
2014-9-7,73.9,61.0,49.3,57.7,50.5,43.5,98,72,35,30.22,30.07,2,0,9,0.00
2014-9-8,82.0,66.3,48.7,57.6,53.1,47.1,96,66,35,30.26,30.13,3,0,10,0.00
2014-9-9,79.0,69.0,57.9,64.3,59.3,53.7,87,72,55,30.16,30.02,3,0,8,0.00
2014-9-10,80.9,71.3,61.1,68.5,64.5,59.3,95,80,64,30.04,29.61,7,2,21,0.08
2014-9-11,74.0,64.9,54.5,70.6,59.1,48.9,94,82,71,30.13,29.56,9,3,25,0.21
2014-9-12,56.5,52.4,44.0,49.9,45.3,42.1,94,77,62,30.28,30.13,3,1,9,0.00
2014-9-13,61.7,51.8,43.8,55.6,47.3,42.1,95,85,63,30.32,30.01,4,1,16,0.04
2014-9-14,63.2,51.4,37.4,49.5,43.3,36.4,98,76,46,30.36,30.22,2,0,7,0.00
2014-9-15,67.2,57.6,47.3,54.8,49.9,45.1,95,77,48,30.22,30.05,4,1,13,0.43
2014-9-16,66.9,57.6,49.4,54.3,49.2,38.5,96,77,37,30.10,30.02,3,1,11,0.01
2014-9-17,68.4,56.8,43.4,53.2,48.7,42.3,97,76,50,30.05,29.95,5,1,13,0.00
2014-9-18,60.1,50.8,40.0,54.8,48.0,39.0,97,90,81,30.23,29.97,4,1,11,0.00
2014-9-19,68.2,51.8,36.6,53.7,43.2,35.8,98,76,39,30.33,30.09,2,0,7,0.01
2014-9-20,77.4,69.7,59.5,63.6,59.8,53.7,81,71,58,30.09,29.76,6,4,22,0.00
2014-9-21,75.9,68.9,54.4,67.0,60.9,51.1,93,76,55,29.77,29.55,8,3,26,0.12
2014-9-22,56.7,52.2,47.7,51.3,43.4,40.2,93,73,57,30.23,29.72,4,2,16,0.00
2014-9-23,69.3,57.7,46.4,54.4,48.3,41.4,95,72,50,30.39,30.23,4,1,14,0.00
2014-9-24,79.3,62.5,45.1,56.5,52.2,44.3,98,73,42,30.50,30.39,2,0,7,0.00
2014-9-25,76.8,60.8,48.6,57.3,53.1,47.2,97,78,46,30.41,30.26,2,0,8,0.00
2014-9-26,77.5,57.7,45.7,57.4,51.1,44.9,98,82,44,30.33,30.24,2,0,7,0.00
2014-9-27,80.5,62.6,48.1,59.8,53.4,47.3,98,76,39,30.32,30.20,2,0,6,0.00
2014-9-28,82.6,65.0,49.1,61.3,55.8,48.1,98,76,41,30.20,30.02,2,0,5,0.00
2014-9-29,78.0,64.5,52.7,63.6,59.1,51.9,98,85,47,30.02,29.87,3,1,10,0.00
2014-9-30,74.7,62.4,51.0,62.1,57.0,49.9,98,84,58,29.97,29.85,2,0,8,0.02
2014-10-1,70.5,62.0,58.0,62.1,58.7,56.0,95,89,74,30.07,29.97,2,1,9,0.00
2014-10-2,75.6,63.8,52.2,61.6,56.8,51.4,98,80,52,30.10,29.96,3,1,9,0.00
2014-10-3,77.7,64.7,54.4,61.9,58.2,52.5,95,81,54,29.96,29.52,6,2,21,0.12
2014-10-4,62.0,50.1,40.3,60.0,47.1,38.2,96,89,71,29.72,29.49,6,2,22,1.03
2014-10-5,48.8,43.9,39.2,45.3,40.7,36.5,96,89,69,29.86,29.67,4,1,13,1.15
2014-10-6,65.7,55.3,46.1,54.9,46.1,37.1,96,72,58,29.85,29.72,5,2,18,0.34
2014-10-7,66.5,59.5,55.2,55.1,51.4,47.2,94,76,51,29.85,29.66,6,2,17,0.12
2014-10-8,60.7,54.7,49.9,55.0,43.6,33.3,95,69,39,29.94,29.64,7,2,24,0.01
2014-10-9,60.9,49.5,37.4,40.2,37.8,34.1,94,67,39,30.08,29.94,5,1,17,0.00
2014-10-10,59.4,49.4,38.8,43.4,40.3,36.9,94,72,50,30.14,30.07,3,0,10,0.00
2014-10-11,57.7,47.5,36.9,41.6,39.6,35.1,95,76,47,30.24,30.11,3,0,10,0.00
2014-10-12,54.4,36.5,30.7,42.9,33.9,29.7,98,91,56,30.31,30.24,1,0,4,0.00
2014-10-13,65.1,64.6,64.1,59.9,59.5,59.2,84,83,83,30.01,29.98,1,0,5,0.41
2014-10-14,81.3,71.8,61.6,65.0,61.7,57.1,88,71,54,29.98,29.74,8,3,21,0.00
2014-10-15,74.2,61.5,53.8,65.1,57.6,52.4,96,87,71,29.85,29.68,6,1,17,0.07
2014-10-16,67.0,58.7,53.9,58.8,55.6,52.8,98,90,71,29.76,29.63,5,1,14,0.28
2014-10-17,64.1,58.4,54.3,56.3,54.1,52.2,96,86,71,29.65,29.51,6,2,19,0.75
2014-10-18,60.2,50.0,42.9,51.7,44.7,36.8,93,82,71,29.97,29.51,4,2,15,0.14
2014-10-19,49.2,41.9,36.3,37.1,32.7,28.4,94,70,51,30.15,29.96,4,1,13,0.00
2014-10-20,57.1,49.3,37.2,48.5,43.1,35.1,95,80,65,30.02,29.81,4,1,15,0.00
2014-10-21,53.4,49.3,44.3,50.5,47.7,43.2,96,94,86,30.12,29.77,4,1,13,0.48
2014-10-22,48.4,45.4,43.5,43.2,41.9,40.8,96,88,78,30.25,30.12,4,1,13,0.00
2014-10-23,59.7,49.6,41.5,45.0,42.4,40.1,95,78,54,30.20,30.04,4,1,13,0.00
2014-10-24,55.9,46.6,35.9,48.4,41.8,35.1,98,84,56,30.06,29.94,3,1,12,0.01
2014-10-25,62.9,56.2,50.4,55.3,51.2,41.3,93,84,68,29.94,29.60,6,2,21,0.00
2014-10-26,52.2,48.2,37.2,41.8,39.6,34.3,90,72,64,29.94,29.65,4,1,16,0.00
2014-10-27,62.3,45.9,32.5,44.9,38.1,31.7,98,78,45,30.05,29.86,2,0,9,0.00
2014-12-19,29.5,27.4,23.9,23.7,22.6,21.1,89,82,75,30.31,30.15,2,1,0,0.00
2014-12-20,33.8,27.6,21.9,25.4,23.6,19.7,94,85,69,30.34,30.27,2,0,0,0.00
2014-12-21,28.6,26.7,24.2,24.5,23.7,21.7,91,88,84,30.36,30.32,0,0,0,0.00
2014-12-25,40.8,38.6,38.3,34.6,32.6,31.1,85,79,74,30.15,29.92,6,4,15,0.00
2014-12-26,47.5,40.7,36.8,36.3,33.9,31.6,93,77,59,30.25,30.12,5,2,14,0.00
2014-12-27,54.1,46.7,37.7,43.8,39.4,35.3,92,76,65,30.18,29.90,5,2,12,0.00
2014-12-28,47.7,36.4,28.7,44.0,30.8,23.9,94,80,66,30.16,29.88,5,1,14,0.25
2014-12-29,30.9,27.3,23.0,25.0,21.6,14.9,92,79,66,30.38,30.15,3,0,6,0.00
2014-12-30,29.3,24.1,18.9,20.5,13.0,7.2,87,63,43,30.50,30.38,5,1,12,0.00
2014-12-31,24.1,19.2,14.5,18.0,10.7,4.3,90,70,49,30.41,30.06,7,3,16,0.00
2015-1-1,31.6,26.0,19.8,24.1,17.8,8.5,88,71,61,30.07,29.86,9,6,22,0.00
2015-1-2,34.7,28.5,20.2,23.1,19.5,15.5,87,69,53,30.46,30.03,5,2,13,0.00